Weather History for Spencer, IA

Change the Weather History Date:

Saturday, January 11, 2014

  Actual Average Record
Temperature  
Mean Temperature 22 °F -  
Max Temperature 30 °F 22 °F 60 °F (2006)
Min Temperature 15 °F 3 °F -21 °F (1974)
Degree Days  
Heating Degree Days 42    
Moisture  
Dew Point 20 °F    
Average Humidity 86    
Maximum Humidity 96    
Minimum Humidity 81    
Precipitation  
Precipitation 0.00 in - - ()
Sea Level Pressure  
Sea Level Pressure 29.71 in    
Wind  
Wind Speed 12 mph (West)    
Max Wind Speed 21 mph    
Max Gust Speed 30 mph    
Visibility 9 miles    
Events      
Averages and records for this station are not official NWS values.
T = Trace of Precipitation, MM = Missing Value Source: NWS Daily Summary

Daily Weather History Graph

Daily Weather History Graph

Search for Another Location

Airport:

Trip Planner

Search our weather history database for the weather conditions in past years. The results will help you decide how hot, cold, wet, or windy it might be!

Date:

Astronomy

Jan. 11, 2014 Rise Set
Actual Time 7:51 AM CST 5:06 PM CST
Civil Twilight 7:19 AM CST 5:38 PM CST
Nautical Twilight 6:44 AM CST 6:13 PM CST
Astronomical Twilight 6:09 AM CST 6:47 PM CST
Moon 1:52 PM CST (1/11) 3:55 AM CST (1/11)
Length of Visible Light 10h 18m
Length of Day
9h 15m
Waxing Gibbous, 83% of the Moon is Illuminated
Jan 11
Waxing Gibbous
Jan 15
Full
Jan 23
Last Quarter
Jan 30
New
Feb 6
First Quarter

Hourly Weather History & Observations

Time (CST) Temp. Windchill Dew Point Humidity Pressure Visibility Wind Dir Wind Speed Gust Speed Precip Events Conditions
12:53 AM 19.9 °F 8.6 °F 17.1 °F 89% 29.59 in 7.0 mi West 10.4 mph - N/A   Clear
1:53 AM 21.9 °F 11.0 °F 19.0 °F 89% 29.59 in 9.0 mi WNW 10.4 mph - N/A   Clear
2:53 AM 21.0 °F 14.6 °F 17.1 °F 85% 29.59 in 10.0 mi NW 4.6 mph - N/A   Clear
3:53 AM 21.9 °F 12.5 °F 18.0 °F 85% 29.60 in 10.0 mi West 8.1 mph - N/A   Clear
4:53 AM 15.1 °F 4.2 °F 10.9 °F 84% 29.61 in 10.0 mi WNW 8.1 mph - N/A   Clear
5:53 AM 18.0 °F 7.7 °F 14.0 °F 84% 29.62 in 10.0 mi WNW 8.1 mph - N/A   Clear
6:53 AM 19.9 °F 7.3 °F 16.0 °F 85% 29.64 in 10.0 mi WNW 12.7 mph - N/A   Clear
7:53 AM 19.9 °F 7.3 °F 15.1 °F 81% 29.67 in 10.0 mi NW 12.7 mph - N/A   Clear
8:33 AM 19.9 °F 4.8 °F 15.1 °F 81% 29.64 in 10.0 mi NW 18.4 mph - N/A   Scattered Clouds
8:42 AM 19.9 °F 5.7 °F 16.0 °F 85% 29.65 in 10.0 mi NW 16.1 mph - N/A   Mostly Cloudy
8:53 AM 21.0 °F 7.1 °F 17.1 °F 85% 29.70 in 10.0 mi NW 16.1 mph - N/A   Overcast
9:53 AM 21.9 °F 8.7 °F 19.0 °F 89% 29.74 in 10.0 mi WNW 15.0 mph - N/A   Overcast
10:53 AM 27.0 °F 15.2 °F 23.0 °F 85% 29.75 in 8.0 mi NW 15.0 mph - N/A   Overcast
11:53 AM 28.9 °F 15.8 °F 25.0 °F 85% 29.75 in 10.0 mi NW 20.7 mph 29.9 mph N/A   Overcast
12:32 PM 30.0 °F 17.9 °F 26.1 °F 85% 29.71 in 10.0 mi WNW 18.4 mph - N/A   Overcast
12:53 PM 30.0 °F 17.9 °F 26.1 °F 85% 29.77 in 10.0 mi WNW 18.4 mph - N/A   Overcast
1:53 PM 30.0 °F 18.7 °F 26.1 °F 85% 29.76 in 10.0 mi WNW 16.1 mph - N/A   Overcast
2:25 PM 30.9 °F 20.2 °F 27.0 °F 85% 29.71 in 10.0 mi WNW 15.0 mph - N/A   Overcast
2:36 PM 30.9 °F 21.2 °F 26.1 °F 82% 29.72 in 10.0 mi WNW 12.7 mph - N/A   Overcast
2:53 PM 30.9 °F 20.7 °F 26.1 °F 82% 29.77 in 10.0 mi West 13.8 mph - N/A   Overcast
3:25 PM 30.0 °F 19.5 °F 26.1 °F 85% 29.73 in 10.0 mi West 13.8 mph - N/A   Overcast
3:53 PM 30.0 °F 19.5 °F 25.0 °F 82% 29.79 in 10.0 mi West 13.8 mph - N/A   Overcast
4:12 PM 30.0 °F 19.5 °F 26.1 °F 85% 29.74 in 10.0 mi West 13.8 mph - N/A   Overcast
4:53 PM 28.9 °F 16.5 °F 25.0 °F 85% 29.81 in 10.0 mi West 18.4 mph - N/A   Overcast
5:53 PM 26.1 °F 16.8 °F 24.1 °F 92% 29.82 in 8.0 mi WSW 9.2 mph - N/A   Overcast
6:11 PM 26.1 °F 18.4 °F 23.0 °F 88% 29.76 in 7.0 mi SW 6.9 mph - N/A   Overcast
6:30 PM 21.9 °F 15.7 °F 21.0 °F 96% 29.75 in 5.0 mi SSW 4.6 mph - N/A   Scattered Clouds
6:53 PM 21.0 °F 12.4 °F 19.0 °F 92% 29.80 in 6.0 mi SW 6.9 mph - N/A   Clear
7:53 PM 19.0 °F 10.0 °F 16.0 °F 88% 29.79 in 4.0 mi South 6.9 mph - N/A   Clear
8:53 PM 19.0 °F 10.0 °F 16.0 °F 88% 29.78 in 7.0 mi South 6.9 mph - N/A   Clear
9:53 PM 21.9 °F 13.4 °F 18.0 °F 85% 29.77 in 10.0 mi South 6.9 mph - N/A   Clear
10:53 PM 19.0 °F 9.0 °F 16.0 °F 88% 29.73 in 10.0 mi South 8.1 mph - N/A   Clear
11:53 PM 24.1 °F 13.1 °F 19.9 °F 84% 29.68 in 10.0 mi South 11.5 mph - N/A   Clear